Location: Heisler
(52.6701°N, 112.2239°W)
Time: 16:10:06
(UTC+00:00)

N. Korean satellite - Pass Details

Date: 07 December 2021
Orbit: 446 x 492 km, 97.3° (Epoch: 16 January)

Event Time Altitude Azimuth Distance (km) Brightness Sun altitude
Rises 14:14:30 0° 359° (N) 2,471 9.9 -10.1°
Reaches altitude 10° 14:17:14 10° 334° (NNW) 1,588 8.7 -9.8°
Maximum altitude 14:19:09 14° 300° (WNW) 1,333 8.1 -9.5°
Drops below altitude 10° 14:21:03 10° 265° (W) 1,579 8.6 -9.2°
Sets 14:23:44 0° 241° (WSW) 2,437 9.8 -8.9°
